Regional Weather Roundup
Issued by NWS

Home | Current Version | Previous Version | Graphics & Text | Print | Product List | Glossary On
Versions: 1 2 3 4 5 6 7 8 9 10 11 12 13 14 15 16 17 18 19 20 21 22 23 24 25 26 27 28 29 30 31 32 33 34 35 36 37 38 39 40 41 42 43 44 45 46 47 48 49 50
479
ASUS43 KDMX 091503
RWRIA

WEATHER ROUNDUP FOR IOWA
NATIONAL WEATHER SERVICE DES MOINES IA
900 AM CST TUE FEB 09 2016

NOTE: "FAIR" INDICATES FEW OR NO CLOUDS BELOW 12,000 FEET WITH NO
SIGNIFICANT WEATHER AND/OR OBSTRUCTIONS TO VISIBILITY.

* - THESE STATIONS ARE NOT NWS STATIONS...THUS NOT UNDER NWS
QUALITY CONTROL.  THEY ALSO DO NOT REPORT WEATHER SUCH
AS PRECIPITATION OR FOG.

IAZ001>003-012>014-020>022-031>034-043>046-091600-
   NORTHWEST IOWA

CITY           SKY/WX    TMP DP  RH WIND       PRES   REMARKS
CARROLL *      PTSUNNY    7   1  78 NW22      30.15R WCI -14
CHEROKEE *     SUNNY      7   1  78 NW14G22   30.20R WCI -10
DENISON *      CLOUDY     9   1  72 N13G22    30.17R WCI  -7
LE MARS *      SUNNY      9   3  78 N13G23    30.26R WCI  -7
ORANGE CITY *  SUNNY      7   1  78 NW16G22   30.21R WCI -11
SHELDON *      SUNNY      5   0  78 NW18      30.19R WCI -15
SIOUX CITY     SUNNY     12   2  64 N17       30.25R WCI  -5
SPENCER        SUNNY      6  -2  69 NW22      30.17R WCI -15
STORM LAKE *   SUNNY      5   1  85 NW20G26   30.15R WCI -15
$$

IAZ055>058-069>071-079>083-090>094-091600-
   SOUTHWEST IOWA

CITY           SKY/WX    TMP DP  RH WIND       PRES   REMARKS
ATLANTIC *     PTSUNNY    9   1  72 N18G26    30.18R WCI -10
AUDUBON *      SUNNY      7   1  78 NW18G24   30.15R WCI -12
CLARINDA *     CLOUDY    12   5  73 N23G31    30.20S WCI  -7
COUNCIL BLFS * SUNNY     12   5  73 NW20G25   30.21R WCI  -6
CRESTON *      MOSUNNY    9   1  72 N22       30.12R WCI -11
HARLAN  *      CLOUDY     9   1  72 N17G24    30.22R WCI -10
LAMONI         PTSUNNY   11   3  70 NW18G29   30.11R WCI  -7
RED OAK *      PTSUNNY   12   5  73 N18       30.19R WCI  -5
SHENANDOAH *   MOSUNNY   16   9  73 N16       30.21R WCI   0
$$

IAZ047>049-059>061-072>074-084-091600-
   CENTRAL IOWA

CITY           SKY/WX    TMP DP  RH WIND       PRES   REMARKS
AMES           PTSUNNY    8   2  76 NW22G32   30.11R WCI -12
ANKENY *       CLOUDY    10   1  67 NW21G26   30.12R WCI  -9
BOONE *        MOSUNNY    9   0  66 NW22G29   30.08S WCI -11
CHARITON *     FLURRIES  10   3  72 NW22G29   30.09R WCI  -9
DES MOINES     MOSUNNY   11   2  67 NW21      30.12R WCI  -8
GRINNELL*      CLOUDY    10   5  82 NW24G30   30.05R HAZE    WCI -11
KNOXVILLE *    PTSUNNY   10   3  72 NW21G28   30.07R WCI  -9
MARSHALLTOWN   CLOUDY     8   3  80 NW21      30.06R WCI -12
NEWTON *       FLURRIES   9   3  78 NW22G30   30.07R WCI -11
PELLA *        PTSUNNY   12   5  73 NW21G30   30.09R WCI  -6
$$

IAZ004>006-015-016-023>025-035-036-091600-
   NORTH CENTRAL IOWA

CITY           SKY/WX    TMP DP  RH WIND       PRES   REMARKS
ALGONA *       MOSUNNY    7   1  78 N24G31    30.10R WCI -15
CLARION *      MOSUNNY    7   0  72 NW24G35   30.08S WCI -15
ESTHERVILLE    SUNNY      4  -1  80 NW25      30.13R WCI -19
FORT DODGE *   MOSUNNY    7   0  72 NW9G23    30.13R WCI  -7
MASON CITY     CLOUDY     6   0  76 NW25      30.06R WCI -16
FOREST CITY *  SUNNY      7   1  78 NW24G33   30.06S WCI -15
WEBSTER CITY * MOSUNNY    7   0  72 NW23      30.08S WCI -14
$$

IAZ007>011-017>019-026>030-037>042-050>054-066-091600-
   NORTHEAST IOWA

CITY           SKY/WX    TMP DP  RH WIND       PRES   REMARKS
CEDAR RAPIDS   MOSUNNY   12   6  77 N20G29    29.99R WCI  -6
CHARLES CITY * CLOUDY     7   1  78 NW21      30.03R WCI -13
CLINTON *      MOSUNNY   14   6  70 N20G26    29.95R WCI  -3
DECORAH *      CLOUDY     7   0  72 N23G29    29.96S WCI -14
DUBUQUE        CLOUDY    10   2  69 NW22      29.92R WCI -10
MONTICELLO *   MOSUNNY   10   1  67 NW15G29   29.97R WCI  -6
OELWEIN *      LGT SNOW   9   3  78 NW21G29   29.99S WCI -11
WATERLOO       CLOUDY     9   2  73 NW20      30.02R WCI -10
$$

IAZ064-065-067-068-078-091600-
   EAST CENTRAL IOWA

CITY           SKY/WX    TMP DP  RH WIND       PRES   REMARKS
DAVENPORT      MOSUNNY   14   5  67 NW18      29.95R WCI  -3
IOWA CITY      CLOUDY    13   5  70 NW18G25   30.02R WCI  -4
MT. PLEASANT * CLOUDY    16   9  73 NW18G26   30.00R WCI  -1
MUSCATINE *    PTSUNNY   14   5  67 NW20      30.00R WCI  -3
QUAD CITIES    PTSUNNY   16   5  62 NW18G24   29.95R WCI   0
$$

IAZ062-063-075>077-085>089-095>099-091600-
   SOUTHEAST IOWA

CITY           SKY/WX    TMP DP  RH WIND       PRES   REMARKS
BURLINGTON     CLOUDY    15   7  70 NW21G28   29.98R WCI  -2
FAIRFIELD *    CLOUDY    14   5  67 NW24      30.01S WCI  -5
FORT MADISON * LGT SNOW  14   9  79 NW18G25   29.99R WCI  -3
KEOKUK *       LGT SNOW  16  12  86 NW10G17   30.00R VSB 1   WCI   3
OSKALOOSA *      N/A     10   5  79 NW18G26   30.05S WCI  -8
OTTUMWA        CLOUDY    11   5  77 NW25      30.05R WCI -10
WASHINGTON *   FLURRIES  14   7  73 NW23      30.02R WCI  -5
$$

ABBREVIATIONS USED IN REMARKS
   TC - TEMPERATURES IN CELSIUS
  WCI - WIND CHILL INDEX
   HX - HEAT INDEX
  VSB - VISIBILITY
$$





USA.gov is the U.S. government's official web portal to all federal, state and local government web resources and services.